Location: Hylvaty SDH
(49.9612°N, 16.4057°E)
Time: 12:15:09
(UTC+01:00)

Tiros 1 - Pass Details

Date: 04 October 2020
Orbit: 630 x 663 km, 48.4° (Epoch: 28 October)

Event Time Altitude Azimuth Distance (km) Brightness Sun altitude
Rises 12:46:46 0° 204° (SSW) 2,922 11.4 35.4°
Reaches altitude 10° 12:49:37 10° 187° (S) 2,024 11.1 35.4°
Maximum altitude 12:52:55 19° 142° (SE) 1,516 10.0 35.4°
Drops below altitude 10° 12:56:14 10° 97° (E) 2,047 9.9 35.3°
Sets 12:59:07 0° 80° (E) 2,968 10.4 35.3°
